TimeEST,TemperatureF,Dew PointF,Humidity,Sea Level PressureIn,VisibilityMPH,Wind Direction,Wind SpeedMPH,Gust SpeedMPH,PrecipitationIn,Events,Conditions,WindDirDegrees,DateUTC
12:05 AM,17.6,14.0,86,30.25,10.0,SW,8.1,-,0.00,,Clear,220,2013-01-05 05:05:00
12:25 AM,17.6,14.0,86,30.25,10.0,SW,9.2,-,0.00,,Clear,220,2013-01-05 05:25:00
12:45 AM,19.4,14.0,80,30.25,10.0,SSW,10.4,-,0.00,,Clear,210,2013-01-05 05:45:00
1:05 AM,19.4,15.8,86,30.25,10.0,SSW,10.4,-,0.00,,Clear,210,2013-01-05 06:05:00
1:25 AM,19.4,15.8,86,30.26,10.0,SSW,10.4,-,0.00,,Clear,210,2013-01-05 06:25:00
1:45 AM,19.4,15.8,86,30.26,10.0,SW,9.2,-,0.00,,Clear,220,2013-01-05 06:45:00
2:05 AM,19.4,15.8,86,30.25,10.0,SSW,5.8,-,0.00,,Clear,210,2013-01-05 07:05:00
2:25 AM,19.4,17.6,93,30.26,10.0,SSW,4.6,-,0.00,,Clear,200,2013-01-05 07:25:00
2:45 AM,19.4,17.6,93,30.27,10.0,SSW,6.9,-,0.00,,Clear,200,2013-01-05 07:45:00
3:05 AM,19.4,17.6,93,30.27,10.0,South,4.6,-,0.00,,Clear,180,2013-01-05 08:05:00
3:25 AM,19.4,17.6,93,30.26,10.0,South,4.6,-,0.00,,Clear,170,2013-01-05 08:25:00
3:45 AM,19.4,17.6,93,30.25,10.0,South,4.6,-,0.00,,Clear,190,2013-01-05 08:45:00
4:05 AM,17.6,14.0,86,30.28,9.0,SSW,6.9,-,0.00,,Clear,210,2013-01-05 09:05:00
4:25 AM,19.4,17.6,93,30.26,10.0,SSW,5.8,-,0.00,,Clear,200,2013-01-05 09:25:00
4:45 AM,19.4,17.6,93,30.27,10.0,SSW,6.9,-,0.00,,Clear,200,2013-01-05 09:45:00
5:05 AM,19.4,17.6,93,30.27,10.0,SSW,6.9,-,0.00,,Clear,200,2013-01-05 10:05:00
5:25 AM,19.4,17.6,93,30.27,9.0,South,5.8,-,0.00,,Clear,190,2013-01-05 10:25:00
5:45 AM,19.4,17.6,93,30.27,8.0,SSW,5.8,-,0.00,,Clear,200,2013-01-05 10:45:00
6:05 AM,19.4,17.6,93,30.27,8.0,SSE,4.6,-,0.00,,Clear,160,2013-01-05 11:05:00
6:25 AM,19.4,19.4,100,30.27,9.0,South,6.9,-,0.00,,Clear,180,2013-01-05 11:25:00
6:45 AM,17.6,17.6,100,30.28,8.0,South,6.9,-,0.00,,Clear,180,2013-01-05 11:45:00
7:05 AM,19.4,17.6,93,30.29,7.0,South,6.9,-,0.00,,Clear,180,2013-01-05 12:05:00
7:25 AM,19.4,17.6,93,30.29,7.0,South,6.9,-,0.00,,Clear,170,2013-01-05 12:25:00
7:45 AM,19.4,19.4,100,30.29,7.0,SSE,4.6,-,0.00,,Clear,150,2013-01-05 12:45:00
8:25 AM,19.4,19.4,100,30.28,5.0,SE,8.1,-,0.00,,Clear,140,2013-01-05 13:25:00
8:45 AM,19.4,19.4,100,30.28,6.0,SE,8.1,-,0.00,,Clear,140,2013-01-05 13:45:00
9:05 AM,21.2,19.4,93,30.27,7.0,SSE,6.9,-,0.00,,Clear,150,2013-01-05 14:05:00
9:25 AM,21.2,19.4,93,30.28,8.0,SSE,6.9,-,0.00,,Clear,160,2013-01-05 14:25:00
9:45 AM,23.0,21.2,93,30.28,8.0,South,6.9,-,0.00,,Clear,170,2013-01-05 14:45:00
10:05 AM,23.0,21.2,93,30.29,8.0,South,6.9,-,0.00,,Clear,170,2013-01-05 15:05:00
10:45 AM,26.6,23.0,86,30.28,9.0,South,8.1,-,0.00,,Clear,170,2013-01-05 15:45:00
11:05 AM,28.4,23.0,80,30.28,9.0,South,10.4,-,0.00,,Clear,170,2013-01-05 16:05:00
11:45 AM,28.4,23.0,80,30.25,10.0,South,8.1,-,0.00,,Clear,170,2013-01-05 16:45:00
12:05 PM,30.2,24.8,80,30.24,10.0,South,8.1,-,0.00,,Clear,170,2013-01-05 17:05:00
12:25 PM,32.0,24.8,75,30.22,10.0,South,6.9,-,0.00,,Clear,170,2013-01-05 17:25:00
12:45 PM,32.0,26.6,80,30.21,10.0,South,10.4,-,0.00,,Clear,180,2013-01-05 17:45:00
1:05 PM,32.0,26.6,80,30.20,10.0,South,11.5,-,0.00,,Clear,190,2013-01-05 18:05:00
1:25 PM,33.8,26.6,75,30.19,10.0,South,11.5,-,0.00,,Clear,190,2013-01-05 18:25:00
1:45 PM,33.8,26.6,75,30.18,10.0,South,11.5,-,0.00,,Clear,190,2013-01-05 18:45:00
2:05 PM,33.8,26.6,75,30.16,10.0,South,11.5,-,0.00,,Clear,180,2013-01-05 19:05:00
2:25 PM,33.8,26.6,75,30.15,10.0,South,12.7,-,0.00,,Clear,180,2013-01-05 19:25:00
2:45 PM,35.6,26.6,70,30.15,10.0,South,12.7,-,0.00,,Clear,190,2013-01-05 19:45:00
3:05 PM,35.6,26.6,70,30.16,10.0,South,13.8,-,0.00,,Clear,190,2013-01-05 20:05:00
3:25 PM,35.6,26.6,70,30.15,10.0,South,10.4,-,0.00,,Clear,180,2013-01-05 20:25:00
3:45 PM,35.6,26.6,70,30.14,10.0,South,10.4,-,0.00,,Clear,190,2013-01-05 20:45:00
4:05 PM,35.6,26.6,70,30.14,10.0,South,10.4,-,0.00,,Mostly Cloudy,190,2013-01-05 21:05:00
4:25 PM,35.6,26.6,70,30.14,10.0,South,12.7,-,0.00,,Mostly Cloudy,190,2013-01-05 21:25:00
4:45 PM,33.8,26.6,75,30.12,10.0,South,8.1,-,0.00,,Partly Cloudy,180,2013-01-05 21:45:00
5:05 PM,33.8,26.6,75,30.14,10.0,South,9.2,-,0.00,,Partly Cloudy,190,2013-01-05 22:05:00
5:45 PM,33.8,28.4,81,30.14,10.0,South,9.2,-,0.00,,Partly Cloudy,190,2013-01-05 22:45:00
6:05 PM,33.8,26.6,75,30.15,10.0,SSW,11.5,-,0.00,,Partly Cloudy,200,2013-01-05 23:05:00
6:25 PM,33.8,26.6,75,30.14,10.0,South,12.7,-,0.00,,Partly Cloudy,190,2013-01-05 23:25:00
6:45 PM,33.8,26.6,75,30.13,10.0,South,11.5,-,0.00,,Clear,180,2013-01-05 23:45:00
7:05 PM,33.8,26.6,75,30.14,10.0,SSW,9.2,-,0.00,,Clear,200,2013-01-06 00:05:00
7:25 PM,33.8,26.6,75,30.14,10.0,SSW,12.7,-,0.00,,Scattered Clouds,200,2013-01-06 00:25:00
7:45 PM,33.8,26.6,75,30.13,10.0,SSW,11.5,-,0.00,,Partly Cloudy,210,2013-01-06 00:45:00
8:05 PM,33.8,28.4,81,30.13,10.0,SW,13.8,-,0.00,,Mostly Cloudy,220,2013-01-06 01:05:00
8:25 PM,33.8,26.6,75,30.13,10.0,SW,12.7,-,0.00,,Overcast,230,2013-01-06 01:25:00
8:45 PM,33.8,28.4,81,30.12,10.0,SW,11.5,-,0.00,,Overcast,220,2013-01-06 01:45:00
9:05 PM,32.0,28.4,87,30.12,10.0,SW,12.7,-,0.00,,Overcast,220,2013-01-06 02:05:00
9:25 PM,32.0,28.4,87,30.12,10.0,SW,10.4,-,0.00,,Overcast,220,2013-01-06 02:25:00
9:45 PM,32.0,28.4,87,30.11,10.0,SW,10.4,-,0.00,,Overcast,220,2013-01-06 02:45:00
10:05 PM,32.0,28.4,87,30.12,10.0,SSW,11.5,-,0.00,,Overcast,210,2013-01-06 03:05:00
10:25 PM,32.0,28.4,87,30.11,10.0,SW,11.5,-,0.00,,Overcast,220,2013-01-06 03:25:00
10:45 PM,32.0,28.4,87,30.11,10.0,SSW,11.5,-,0.00,,Overcast,210,2013-01-06 03:45:00
11:05 PM,32.0,28.4,87,30.11,10.0,SSW,11.5,-,0.00,,Mostly Cloudy,210,2013-01-06 04:05:00
11:25 PM,32.0,28.4,87,30.10,10.0,SSW,12.7,-,0.00,,Partly Cloudy,200,2013-01-06 04:25:00
11:45 PM,32.0,28.4,87,30.09,10.0,SSW,13.8,-,0.00,,Clear,200,2013-01-06 04:45:00